"Pseudo-MPEC" for 6D64721

Created 2026 Apr 9 3:35:03 UT using Find_Orb

Click here for an explanation of pseudo-MPECs

 
 Astrometry: 
     6D64721*KC2026 04 07.10802 10 57 48.80 -08 17 10.1    ~4745 18.4 GVNEOCPW94
     6D64721 KC2026 04 07.11426 10 57 46.90 -08 18 01.1    ~4745 19.9 GVNEOCPW94
     6D64721 KC2026 04 07.12043 10 57 44.99 -08 18 51.2    ~4745 19.0 GVNEOCPW94
     6D64721  C2026 04 07.19139210 57 28.980-08 29 51.20   ~475Z 19.25GVNEOCPU68
     6D64721  C2026 04 07.19473310 57 28.015-08 30 16.24   ~475Z 19.25GVNEOCPU68
     6D64721  C2026 04 07.20857910 57 24.021-08 32 06.61   ~475Z 19.93GVNEOCPU74
     6D64721  C2026 04 07.21118610 57 23.182-08 32 26.91   ~475Z 19.93GVNEOCPU74
     6D64721 4C2026 04 07.23003 10 57 12.97 -08 33 20.0    ~476K 19.8 VqNEOCPW97
     6D64721 4C2026 04 07.23587 10 57 11.36 -08 34 05.7    ~476K 19.5 VqNEOCPW97
     6D64721 4C2026 04 07.24169 10 57 09.70 -08 34 50.5    ~476K 19.7 VqNEOCPW97
     6D64721 KB2026 04 07.57946110 55 50.195-09 18 48.07   ~47Eo 19.6 GXNEOCPQ06
     6D64721 KB2026 04 07.58883310 55 47.693-09 19 55.05   ~47Eo 19.5 GXNEOCPQ06
     6D64721 KB2026 04 07.59820410 55 45.213-09 21 03.12   ~47Eo       XNEOCPQ06
     6D64721 KB2026 04 07.80574510 55 01.56 -09 45 33.1    ~47Jo 19.6 GVNEOCPL01
     6D64721 KB2026 04 07.81023810 55 00.45 -09 46 04.4    ~47Jo 19.3 GVNEOCPL01
     6D64721 KB2026 04 07.82007 10 54 57.24 -09 47 12.6    ~47L5 20.0 GXNEOCPM45
     6D64721 KB2026 04 07.82072910 54 58.173-09 47 14.73   ~47K5 19.89RZNEOCP126
     6D64721 KB2026 04 07.82716310 54 56.562-09 47 59.53   ~47K5 19.99RZNEOCP126
     6D64721 KB2026 04 07.83223 10 54 54.23 -09 48 35.5    ~47L5x20.0 GXNEOCPM45
     6D64721 KB2026 04 07.83700410 54 54.80 -09 49 06.4    ~47Ko 20.3 GVNEOCPI93
     6D64721 KB2026 04 07.84472210 54 52.92 -09 49 58.9    ~47Ko 20.1 GVNEOCPI93
     6D64721 KB2026 04 07.85213010 54 51.09 -09 50 49.7    ~47Ko 19.4 GVNEOCPI93
     6D64721 IB2026 04 07.86111810 54 47.911-09 51 52.27   ~47LZ 18.9 GXNEOCP595
     6D64721 KB2026 04 07.87254410 54 45.084-09 53 09.67   ~47LZ 20.0 GXNEOCP595
     6D64721 1C2026 04 07.91305710 54 35.082-09 57 46.28   ~47MK 19.8 GWNEOCP246
     6D64721 1C2026 04 07.91346510 54 34.976-09 57 48.96   ~47MK 19.9 GWNEOCP246
     6D64721 1C2026 04 07.91366910 54 35.000-09 57 50.41   ~47MK 19.9 GWNEOCP246
     6D64721 KC2026 04 07.92274510 54 33.83 -09 58 46.2    ~47Mo 19.8 GXNEOCP958
     6D64721 KC2026 04 07.92664710 54 32.90 -09 59 12.8    ~47Mo 19.6 GXNEOCP958
     6D64721 KC2026 04 07.93049610 54 31.92 -09 59 38.0    ~47Mo 19.4 GXNEOCP958
     6D64721 KB2026 04 07.95649910 54 29.371-10 01 04.44   ~480K 19.6 GXNEOCPY05
     6D64721 KB2026 04 07.97027210 54 25.936-10 02 36.41   ~480K 19.7 GXNEOCPY05
     6D64721 0B2026 04 07.97327810 54 20.972-10 04 23.35   ~486o       WNEOCP204
     6D64721 0B2026 04 07.97943410 54 19.496-10 05 04.29   ~486o 19.5 GWNEOCP204
     6D64721 KB2026 04 07.98405110 54 22.527-10 04 08.15   ~480K 19.5 GXNEOCPY05
     6D64721 |C2026 04 07.99868010 54 20.950-10 05 27.60   ~480o 20.0 GVNEOCP807
     6D64721 |C2026 04 08.00391010 54 19.710-10 06 02.40   ~480o 19.6 GVNEOCP807
     6D64721 |C2026 04 08.00913010 54 18.450-10 06 36.80   ~480o 19.9 GVNEOCP807
     6D64721 KC2026 04 08.83957210 51 35.20 -11 31 39.9    ~48Mo 19.9 GVNEOCPL06
     6D64721 KC2026 04 08.84067310 51 34.97 -11 31 46.4    ~48Mo 19.8 GVNEOCPL06
     6D64721 KC2026 04 08.85077210 51 32.85 -11 32 41.1    ~48LK 19.5 GVNEOCP104
     6D64721 KC2026 04 08.85919610 51 31.13 -11 33 26.6    ~48LK       VNEOCP104
     6D64721 KB2026 04 08.86162010 51 30.667-11 33 41.69   ~48L5 19.5 GXNEOCPD31
     6D64721 KB2026 04 08.86600710 51 29.810-11 34 03.86   ~48L5 19.5 GXNEOCPD31
     6D64721 KC2026 04 08.86660910 51 30.353-11 34 05.95   ~48Lo 19.8 GWNEOCPB74
     6D64721 KC2026 04 08.87230310 51 29.186-11 34 36.88   ~48Lo 19.5 GWNEOCPB74
     6D64721 KC2026 04 08.87642410 51 28.363-11 34 59.92   ~48Lo 19.8 GWNEOCPB74
     6D64721 |C2026 04 08.97872010 51 13.280-11 42 41.10   ~490K 20.1 GVNEOCP807
     6D64721 |C2026 04 08.98525010 51 12.000-11 43 16.20   ~490K 20.0 GVNEOCP807
     6D64721 |C2026 04 08.99178010 51 10.750-11 43 51.60   ~490K 20.2 GVNEOCP807
     6D64721 KC2026 04 09.10890010 50 48.99 -11 55 39.6    ~4935 20.6 GVNEOCPH21
     6D64721 KC2026 04 09.11169710 50 48.47 -11 55 54.4    ~4935 20.2 GVNEOCPH21
     6D64721 KC2026 04 09.11449310 50 47.93 -11 56 09.1    ~4935 20.3 GVNEOCPH21

Station data:
(104) San Marcello Pistoiese  (N44.064178 E10.803750)  Italy.  Observers P.
   Bacci, M. Maestripieri. Measurers P. Bacci, L. Tesi, G. Fagioli. 0.60-m
   reflector + CCD.
(126) Monte Viseggi  (N44.132565 E9.790150)  Italy.
   Observers L. Sannino, A. Mancuso, S. Mercanti, D. Agnetti. Measurers L.
   Sannino, A. Mancuso. 0.41-m f/5.3 reflector + CCD.
(204) Schiaparelli Observatory  (N45.868292 E8.769720)  Italy.  Observer L.
   Buzzi. 0.84-m f/3.5 reflector + CCD.
(246) Klet Observatory-KLENOT  (N48.863991 E14.284760)  Czech Republic.
   Observer J. Ticha. Measurer M. Tichy. 1.06-m f/2.7 reflector + 2048x2048
   CCD.
(595) Farra d'Isonzo  (N45.915731 E13.525780)  Italy.  Observers S. Aschi, E.
   Pettarin, G. Panterotto. Measurers S. Aschi, E. Pettarin. 0.40-m f/5.15
   reflector + CCD.
(807) Cerro Tololo Observatory, La Serena  (S30.169133 W70.805900)  Chile.
   Observer R. Holmes. 0.61-m f/6.5 astrograph + CCD.
(958) Observatoire de Dax  (N43.693381 W1.030530)  France.  Observer P.
   Dupouy. 0.32-m Schmidt-Cassegrain.
(B74) Santa Maria de Montmagastrell  (N41.720158 E1.105360)  Spain.  Observer
   J. M. Bosch. 0.4-m f/1.2 Schmidt-Cassegrain + CCD.
(D31) Osservatorio Aldebaran, Rivalba  (N44.504350 E10.097970)  Italy.
   Observer M. Stefanini. 0.36-m f/6.6 Schmidt-Cassegrain + CMO.
(H21) Astronomical Research Observatory, Westfield  (N39.483054 W87.968270)
   US/Illinois.  Observer R. Holmes. Measurers S. Foglia, L. Buzzi, T.
   Linder, R. Holmes. 0.40-m f/5.32 astrograph + CCD.
(I93) St Pardon de Conques  (N44.558670 W0.202960)  France.  Observers F.
   Losse, W. D'Anna. Measurer F. Losse. 0.40-m f/3.7 reflector + CCD.
(L01) Višnjan Observatory, Tičan  (N45.290897 E13.749300)  Croatia.
   Observers K. Korlević, L. Poropat. Measurer K. Korlevic. 1.0-m f/2.9
   reflector + CCD.
(L06) Sormano 2 Observatory, Bellagio Via Lattea  (N45.970100 E9.254030)
   Italy.  Observer G. Ventre. Measurers G. Ventre, P. Sicoli. 0.28-m f/10
   reflector + CCD.
(M45) Starhopper Observatory, Sfantu Gheorghe  (N45.865494 E25.768890)
   Romania.  Observer F. Ursache. 0.41-m f/7.5 reflector + CMO.
(Q06) Tarui Observatory, Tarui  (N35.394791 E136.495470)  Japan.  Observer H.
   Watanabe. 0.35-m f/1.9 Schmidt-Cassegrain + CMO.
(U68) JPL SynTrack Robotic Telescope, Auberry  (N37.070387 W119.412990)
   US/California.  Observers N. Saini, C. Zhai, R. Trahan, M. Zhan, M. Shao.
   0.28-m f/2.2 Schmidt + CCD.
(U74) JPL SynTrack Robotic Telescope 2, Auberry  (N37.070341 W119.412800)
   US/California.  Observers N. Saini, C. Zhai, R. Trahan, M. Zhan, M. Shao.
   0.36-m f/2.2 Schmidt.
(W94) AMACS1, San Pedro de Atacama  (S22.953074 W68.179810)  Chile.  Observers
   A. Maury, G. Attard. Measurers A. Maury, G. Attard, D. Parrott. 0.28-m
   f/2.2 Schmidt + CCD.
(W97) Atacama Desert Observatory, San Pedro de Atacama  (S22.953413
   W68.179760)  Chile.
(Y05) SONEAR Wykrota-CEAMIG, Serra da Piedade  (S19.824251 W43.690000)
   Brazil.  Observer C. Jacques. 0.45-m f/2.9 reflector + CMO.

Orbital elements:  6D64721
   Perihelion 2026 Jan 26.956802 +/- 0.0597 TT = 22:57:47.6 (JD 2461067.456802)
Epoch 2026 Apr  9.0 TT = JDT 2461139.5   Earth MOID: 0.0311   Ve: 0.0285
M  64.033302208 +/- 0.14            (J2000 ecliptic)             AutoNEOCP
n   0.888818149 +/- 0.00132         Peri.   62.086067 +/- 0.036
a   1.071340294 +/- 0.00106         Node    12.381865 +/- 0.0021
e   0.49722753 +/- 0.000767         Incl.   25.635641 +/- 0.053
P   1.109/405.025d         H 23.51  G  0.15   U  8.3
q 0.538640401 +/- 0.000299    Q 1.604040187 +/- 0.00241
52 of 53 observations 2026 Apr. 7-9; mean residual 0".46
Residuals in arcseconds: 
260407 W94  .39+  .48+    260407 M45( 1.7+  .69+)   260408 807  .09-  .52-    
260407 W94  .08+  .08-    260407 I93  .35-  .02+    260408 807  .22-  .27-    
260407 W94  .73-  .40-    260407 I93  .06-  .40+    260408 L06  .17+  .39+    
260407 U68  .33+  .65-    260407 I93  .14-  .25+    260408 L06  .03+  .02-    
260407 U68  .34+  .85+    260407 595  .69+  .72+    260408 104  .19-  .39-    
260407 U74  .45+  .18+    260407 595  .55+  .84+    260408 104  .57-  .49+    
260407 U74  .82-  .49+    260407 246  .74-  .49-    260408 D31  .88-  .95-    
260407 W97  .63-  .18-    260407 246  .85-  .44-    260408 D31  .54-  .97+    
260407 W97  .19-  .36-    260407 246  .23+  .52-    260408 B74  .31-  .36-    
260407 W97  .69-  .12+    260407 958  .29+  .43+    260408 B74  .63-  .00     
260407 Q06  .35+  .68-    260407 958  .64+  .07-    260408 B74  .54-  .43-    
260407 Q06  .10+  .13-    260407 958  .05+  .46+    260408 807  .47+  .27-    
260407 Q06  .01+  .87-    260407 Y05  .55+  .18-    260408 807  .22+  .06+    
260407 L01  .21-  .08+    260407 Y05  .22+  .04-    260408 807  .47+  .03+    
260407 L01  .14-  .23-    260407 204  .09-  .23+    260409 H21  .37+  .28+    
260407 M45  1.5+  .30+    260407 204  .39-  .19-    260409 H21  .63+  .13+    
260407 126  .08+  .33+    260407 Y05  .37+  .01-    260409 H21  .60+  .07+    
260407 126  .15-  .25-    260407 807  .26-  .49-    

Ephemerides (geocentric):
Date (UTC) HH   RA             Dec           delta  r     elong  mag " sig PA
---- --------  ------------   ------------  ------ ------ -----  --- --------
2026 04 09 04  10 50 38.346   -11 59 39.10  .11247 1.0959 145.4 20.3 .095 149
2026 04 09 05  10 50 31.507   -12 03 13.47  .11293 1.0962 145.3 20.3 .094 148
2026 04 09 06  10 50 24.729   -12 06 46.08  .11339 1.0966 145.3 20.3 .093 146
2026 04 09 07  10 50 18.011   -12 10 16.96  .11384 1.0969 145.2 20.3 .092 145
